Regional Weather Roundup
Issued by NWS

Home | Current Version | Previous Version | Text Only | Print | Product List | Glossary Off
Versions: 1 2 3 4 5 6 7 8 9 10 11 12 13 14 15 16 17 18 19 20 21 22 23 24 25 26 27 28 29 30 31 32 33 34 35 36 37 38 39 40 41 42 43 44 45 46 47 48 49 50

000
ASUS43 KBIS 231131
RWRND
NORTH DAKOTA REGIONAL WEATHER ROUNDUP
NATIONAL WEATHER SERVICE EASTERN NORTH DAKOTA/GRAND FORKS ND
500 AM CST FRI FEB 23 2018

  NOTE: "FAIR" INDICATES FEW OR NO CLOUDS BELOW 12,000 FEET WITH NO
  SIGNIFICANT WEATHER AND/OR OBSTRUCTIONS TO VISIBILITY.

NDZ001>003-009>011-017-231200-
...NORTHWEST NORTH DAKOTA...

CITY           SKY/WX    TMP DP  RH WIND       PRES   REMARKS
WILLISTON      CLOUDY    -6 -11  79 S6        30.24S WCI -19
MINOT          FAIR       3  -3  76 W13       30.18S WCI -14
MINOT AFB      MOCLDY    -2  -8  78 NW12      30.17S WCI -20
$$

NDZ018>021-031>035-040>046-231200-
...SOUTHWEST NORTH DAKOTA...

CITY           SKY/WX    TMP DP  RH WIND       PRES   REMARKS
BISMARCK       FAIR       8   1  73 NW6       30.20R WCI  -2
DICKINSON      FAIR      -4  -9  79 NW9       30.14R WCI -20
GARRISON         N/A     -7 -12  79 NW7       30.18S WCI -21
HETTINGER      FAIR      -5 -10  79 W10       30.16R WCI -23
$$

NDZ004>008-012>016-024-026-027-054-231200-
...NORTHEAST NORTH DAKOTA...

CITY           SKY/WX    TMP DP  RH WIND       PRES   REMARKS
GRAND FORKS    LGT SNOW  17  14  88 NW8       30.15R FOG     WCI   7
GRAND FORKS AF FLURRIES  15  10  80 NW9       30.14S WCI   3
DEVILS LAKE    CLOUDY     6   1  80 NW10      30.15R WCI  -9
$$

NDZ022-023-025-028>030-036>039-047>053-231200-
...SOUTHEAST NORTH DAKOTA...

CITY           SKY/WX    TMP DP  RH WIND       PRES   REMARKS
JAMESTOWN      LGT SNOW  13  10  88 NW15      30.13R FOG     WCI  -3
FARGO          CLOUDY    19  17  92 N7        30.13R WCI  10
WAHPETON       CLOUDY    21  19  93 NW8       30.13R WCI  12
$$




USA.gov is the U.S. government's official web portal to all federal, state and local government web resources and services.